Time,TemperatureF,DewpointF,PressureIn,WindDirection,WindDirectionDegrees,WindSpeedMPH,WindSpeedGustMPH,Humidity,HourlyPrecipIn,Conditions,Clouds,dailyrainin,SoftwareType,DateUTC
2013-09-09 00:13:00,69.0,67.0,29.88,ENE,61,0.0,-999.0,94,-99.99,,,-99.99,,2013-09-09 05:13:00,
2013-09-09 00:23:00,69.0,67.0,29.88,ENE,61,0.0,-999.0,94,-99.99,,,-99.99,,2013-09-09 05:23:00,
2013-09-09 00:53:00,68.0,67.0,29.88,ENE,61,0.0,-999.0,95,-99.99,,,-99.99,,2013-09-09 05:53:00,
2013-09-09 01:12:00,68.0,67.0,29.88,ENE,61,0.0,-999.0,95,-99.99,,,-99.99,,2013-09-09 06:12:00,
2013-09-09 01:21:00,68.0,67.0,29.88,ENE,61,0.0,-999.0,96,-99.99,,,-99.99,,2013-09-09 06:21:00,
2013-09-09 01:52:00,68.0,67.0,29.87,ENE,61,0.0,-999.0,96,-99.99,,,-99.99,,2013-09-09 06:52:00,
2013-09-09 02:11:00,68.0,67.0,29.87,ENE,61,0.0,-999.0,96,-99.99,,,-99.99,,2013-09-09 07:11:00,
2013-09-09 02:22:00,68.0,67.0,29.87,ENE,61,0.0,-999.0,97,-99.99,,,-99.99,,2013-09-09 07:22:00,
2013-09-09 02:43:00,67.0,66.0,29.86,ENE,61,0.0,-999.0,97,-99.99,,,-99.99,,2013-09-09 07:43:00,
2013-09-09 02:52:00,67.0,66.0,29.86,ENE,61,0.0,-999.0,97,-99.99,,,-99.99,,2013-09-09 07:52:00,
2013-09-09 03:11:00,67.0,66.0,29.86,ENE,61,0.0,-999.0,97,-99.99,,,-99.99,,2013-09-09 08:11:00,
2013-09-09 03:22:00,67.0,66.0,29.86,ENE,61,0.0,-999.0,97,-99.99,,,-99.99,,2013-09-09 08:22:00,
2013-09-09 03:52:00,67.0,66.0,29.85,ENE,61,0.0,-999.0,97,-99.99,,,-99.99,,2013-09-09 08:52:00,
2013-09-09 04:12:00,67.0,66.0,29.85,ENE,61,0.0,-999.0,98,-99.99,,,-99.99,,2013-09-09 09:12:00,
2013-09-09 04:22:00,68.0,67.0,29.85,ENE,61,0.0,-999.0,98,-99.99,,,-99.99,,2013-09-09 09:22:00,
2013-09-09 04:53:00,67.0,66.0,29.85,ENE,61,0.0,-999.0,98,-99.99,,,-99.99,,2013-09-09 09:53:00,
2013-09-09 05:12:00,67.0,66.0,29.84,ENE,61,0.0,-999.0,98,-99.99,,,-99.99,,2013-09-09 10:12:00,
2013-09-09 05:23:00,67.0,66.0,29.85,ENE,61,0.0,-999.0,98,-99.99,,,-99.99,,2013-09-09 10:23:00,
2013-09-09 05:42:00,68.0,67.0,29.84,ENE,61,0.0,-999.0,98,-99.99,,,-99.99,,2013-09-09 10:42:00,
2013-09-09 05:52:00,68.0,67.0,29.84,ENE,61,0.0,-999.0,98,-99.99,,,-99.99,,2013-09-09 10:52:00,
2013-09-09 06:11:00,68.0,67.0,29.84,ENE,61,0.0,-999.0,98,-99.99,,,-99.99,,2013-09-09 11:11:00,
2013-09-09 06:22:00,67.0,66.0,29.84,ENE,61,0.0,-999.0,98,-99.99,,,-99.99,,2013-09-09 11:22:00,
2013-09-09 06:52:00,68.0,67.0,29.83,ENE,61,0.0,-999.0,98,-99.99,,,-99.99,,2013-09-09 11:52:00,
2013-09-09 07:12:00,68.0,67.0,29.84,ENE,61,0.0,-999.0,98,-99.99,,,-99.99,,2013-09-09 12:12:00,
2013-09-09 07:22:00,68.0,68.0,29.84,ENE,61,0.0,-999.0,99,-99.99,,,-99.99,,2013-09-09 12:22:00,
2013-09-09 07:42:00,69.0,69.0,29.85,West,277,0.0,-999.0,99,-99.99,,,-99.99,,2013-09-09 12:42:00,
2013-09-09 07:52:00,69.0,69.0,29.84,West,277,0.0,-999.0,99,-99.99,,,-99.99,,2013-09-09 12:52:00,
2013-09-09 08:11:00,70.0,70.0,29.84,West,277,0.0,-999.0,99,-99.99,,,-99.99,,2013-09-09 13:11:00,
2013-09-09 08:21:00,70.0,70.0,29.85,West,277,0.0,-999.0,99,-99.99,,,-99.99,,2013-09-09 13:21:00,
2013-09-09 08:42:00,71.0,71.0,29.85,West,277,0.0,-999.0,99,-99.99,,,-99.99,,2013-09-09 13:42:00,
2013-09-09 08:52:00,72.0,72.0,29.85,SE,142,0.0,-999.0,99,-99.99,,,-99.99,,2013-09-09 13:52:00,
2013-09-09 09:12:00,73.0,73.0,29.85,ESE,115,0.0,-999.0,99,-99.99,,,-99.99,,2013-09-09 14:12:00,
2013-09-09 09:22:00,74.0,73.0,29.85,SSE,148,0.0,-999.0,97,-99.99,,,-99.99,,2013-09-09 14:22:00,
2013-09-09 09:42:00,75.0,73.0,29.85,SE,142,0.0,-999.0,95,-99.99,,,-99.99,,2013-09-09 14:42:00,
2013-09-09 09:52:00,76.0,73.0,29.84,SE,142,0.0,-999.0,91,-99.99,,,-99.99,,2013-09-09 14:52:00,
2013-09-09 10:11:00,78.0,74.0,29.84,SSW,200,1.0,-999.0,88,-99.99,,,-99.99,,2013-09-09 15:11:00,
2013-09-09 10:22:00,79.0,74.0,29.83,SSW,204,1.0,-999.0,84,-99.99,,,-99.99,,2013-09-09 15:22:00,
2013-09-09 10:43:00,81.0,75.0,29.83,South,171,2.0,-999.0,81,-99.99,,,-99.99,,2013-09-09 15:43:00,
2013-09-09 10:53:00,82.0,74.0,29.84,SW,223,1.0,-999.0,78,-99.99,,,-99.99,,2013-09-09 15:53:00,
2013-09-09 11:13:00,83.0,75.0,29.83,WSW,237,1.0,-999.0,77,-99.99,,,-99.99,,2013-09-09 16:13:00,
2013-09-09 11:24:00,84.0,75.0,29.83,SSW,204,1.0,-999.0,75,-99.99,,,-99.99,,2013-09-09 16:24:00,
2013-09-09 11:43:00,84.0,74.0,29.83,SSW,196,1.0,-999.0,73,-99.99,,,-99.99,,2013-09-09 16:43:00,
2013-09-09 11:54:00,85.0,75.0,29.83,West,264,2.0,-999.0,72,-99.99,,,-99.99,,2013-09-09 16:54:00,
2013-09-09 12:12:00,86.0,75.0,29.83,SSW,205,1.0,-999.0,70,-99.99,,,-99.99,,2013-09-09 17:12:00,
2013-09-09 12:23:00,87.0,76.0,29.83,SSE,166,1.0,-999.0,69,-99.99,,,-99.99,,2013-09-09 17:23:00,
2013-09-09 12:52:00,88.0,75.0,29.82,SW,228,1.0,-999.0,65,-99.99,,,-99.99,,2013-09-09 17:52:00,
2013-09-09 13:13:00,89.0,75.0,29.82,South,181,2.0,-999.0,63,-99.99,,,-99.99,,2013-09-09 18:13:00,
2013-09-09 13:22:00,90.0,76.0,29.82,SSW,202,0.0,-999.0,63,-99.99,,,-99.99,,2013-09-09 18:22:00,
2013-09-09 13:52:00,91.0,76.0,29.81,WSW,237,0.0,-999.0,61,-99.99,,,-99.99,,2013-09-09 18:52:00,
2013-09-09 14:12:00,92.0,76.0,29.81,SSE,150,1.0,-999.0,60,-99.99,,,-99.99,,2013-09-09 19:12:00,
2013-09-09 14:22:00,92.0,76.0,29.80,South,189,2.0,-999.0,59,-99.99,,,-99.99,,2013-09-09 19:22:00,
2013-09-09 14:42:00,93.0,77.0,29.79,SSE,161,1.0,-999.0,59,-99.99,,,-99.99,,2013-09-09 19:42:00,
2013-09-09 14:52:00,93.0,76.0,29.79,South,174,1.0,-999.0,58,-99.99,,,-99.99,,2013-09-09 19:52:00,
2013-09-09 15:12:00,94.0,76.0,29.79,SSW,211,1.0,-999.0,56,-99.99,,,-99.99,,2013-09-09 20:12:00,
2013-09-09 15:22:00,95.0,76.0,29.78,SSW,197,0.0,-999.0,55,-99.99,,,-99.99,,2013-09-09 20:22:00,
2013-09-09 15:42:00,95.0,76.0,29.78,SW,229,1.0,-999.0,55,-99.99,,,-99.99,,2013-09-09 20:42:00,
2013-09-09 15:53:00,95.0,75.0,29.78,South,190,0.0,-999.0,53,-99.99,,,-99.99,,2013-09-09 20:53:00,
2013-09-09 16:12:00,95.0,76.0,29.78,SW,226,1.0,-999.0,54,-99.99,,,-99.99,,2013-09-09 21:12:00,
2013-09-09 16:22:00,96.0,76.0,29.78,SSW,203,1.0,-999.0,53,-99.99,,,-99.99,,2013-09-09 21:22:00,
2013-09-09 16:44:00,95.0,75.0,29.77,SSW,198,1.0,-999.0,53,-99.99,,,-99.99,,2013-09-09 21:44:00,
2013-09-09 16:54:00,95.0,75.0,29.78,SE,129,1.0,-999.0,53,-99.99,,,-99.99,,2013-09-09 21:54:00,
2013-09-09 17:13:00,95.0,75.0,29.77,South,187,1.0,-999.0,52,-99.99,,,-99.99,,2013-09-09 22:13:00,
2013-09-09 17:24:00,94.0,74.0,29.78,SW,228,1.0,-999.0,53,-99.99,,,-99.99,,2013-09-09 22:24:00,
2013-09-09 17:43:00,94.0,74.0,29.78,SSW,193,1.0,-999.0,52,-99.99,,,-99.99,,2013-09-09 22:43:00,
2013-09-09 17:54:00,94.0,74.0,29.78,SW,235,1.0,-999.0,53,-99.99,,,-99.99,,2013-09-09 22:54:00,
2013-09-09 18:12:00,93.0,74.0,29.78,SSW,192,1.0,-999.0,54,-99.99,,,-99.99,,2013-09-09 23:12:00,
2013-09-09 18:22:00,93.0,74.0,29.78,SSW,193,0.0,-999.0,54,-99.99,,,-99.99,,2013-09-09 23:22:00,
2013-09-09 18:52:00,91.0,74.0,29.78,South,190,0.0,-999.0,57,-99.99,,,-99.99,,2013-09-09 23:52:00,
2013-09-09 19:12:00,90.0,74.0,29.78,South,190,0.0,-999.0,59,-99.99,,,-99.99,,2013-09-10 00:12:00,
2013-09-09 19:21:00,89.0,74.0,29.79,South,190,0.0,-999.0,61,-99.99,,,-99.99,,2013-09-10 00:21:00,
2013-09-09 19:42:00,88.0,74.0,29.79,SE,135,0.0,-999.0,64,-99.99,,,-99.99,,2013-09-10 00:42:00,
2013-09-09 19:52:00,87.0,75.0,29.79,South,190,0.0,-999.0,67,-99.99,,,-99.99,,2013-09-10 00:52:00,
2013-09-09 20:11:00,86.0,74.0,29.80,SSW,194,0.0,-999.0,68,-99.99,,,-99.99,,2013-09-10 01:11:00,
2013-09-09 20:21:00,85.0,74.0,29.80,SE,140,0.0,-999.0,69,-99.99,,,-99.99,,2013-09-10 01:21:00,
2013-09-09 20:42:00,85.0,74.0,29.80,ESE,120,0.0,-999.0,70,-99.99,,,-99.99,,2013-09-10 01:42:00,
2013-09-09 20:52:00,84.0,73.0,29.80,South,169,1.0,-999.0,70,-99.99,,,-99.99,,2013-09-10 01:52:00,
2013-09-09 21:12:00,84.0,73.0,29.81,SSW,200,0.0,-999.0,70,-99.99,,,-99.99,,2013-09-10 02:12:00,
2013-09-09 21:22:00,84.0,73.0,29.81,East,95,1.0,-999.0,70,-99.99,,,-99.99,,2013-09-10 02:22:00,
2013-09-09 21:42:00,84.0,73.0,29.81,SSE,163,1.0,-999.0,70,-99.99,,,-99.99,,2013-09-10 02:42:00,
2013-09-09 21:52:00,83.0,72.0,29.82,SW,221,0.0,-999.0,69,-99.99,,,-99.99,,2013-09-10 02:52:00,
2013-09-09 22:12:00,83.0,72.0,29.82,SW,227,0.0,-999.0,69,-99.99,,,-99.99,,2013-09-10 03:12:00,
2013-09-09 22:22:00,83.0,72.0,29.83,South,182,1.0,-999.0,69,-99.99,,,-99.99,,2013-09-10 03:22:00,
2013-09-09 22:54:00,83.0,72.0,29.83,South,178,0.0,-999.0,69,-99.99,,,-99.99,,2013-09-10 03:54:00,
2013-09-09 23:24:00,82.0,70.0,29.84,SW,214,0.0,-999.0,68,-99.99,,,-99.99,,2013-09-10 04:24:00,
2013-09-09 23:53:00,81.0,69.0,29.85,SW,225,1.0,-999.0,67,-99.99,,,-99.99,,2013-09-10 04:53:00,